Regional Weather Roundup
Issued by NWS

Home | Current Version | Previous Version | Graphics & Text | Print | Product List | Glossary On
Versions: 1 2 3 4 5 6 7 8 9 10 11 12 13 14 15 16 17 18 19 20 21 22 23 24 25 26 27 28 29 30 31 32 33 34 35 36 37 38 39 40 41 42 43 44 45 46 47 48 49 50
000
ASUS43 KLMK 010810
RWRKY
KENTUCKY REGIONAL WEATHER ROUNDUP
NATIONAL WEATHER SERVICE LOUISVILLE KY
400 AM EDT FRI AUG 01 2014

NOTE "FAIR" INDICATES FEW OR NO CLOUDS BELOW 12,000 FEET
WITH NO SIGNIFICANT WEATHER AND/OR OBSTRUCTIONS TO VISIBILITY.

KYZ001>023-026-027-061>063-070>075-010900-
WESTERN AND SOUTH CENTRAL KENTUCKY

CITY           SKY/WX    TMP DP  RH WIND       PRES   REMARKS
PADUCAH        CLEAR     63  60  90 CALM      30.06S FOG
HENDERSON      CLEAR     61  57  88 CALM      30.06S
OWENSBORO      PTCLDY    65  61  87 CALM      30.07R
HOPKINSVILLE   CLEAR     65  62  89 NW2       30.06S
BOWLING GREEN  CLEAR     64  59  83 CALM      30.06F
GLASGOW        PTCLDY    61  60  99 CALM      30.07S FOG
$$

KYZ024-025-028>034-038-045-046-053-010900-
NORTH CENTRAL KENTUCKY

CITY           SKY/WX    TMP DP  RH WIND       PRES   REMARKS
LOUISVILLE/SDF CLEAR     67  60  78 SE5       30.07S
LOUISVILLE/LOU CLEAR     63  58  83 CALM      30.08S
FORT KNOX      CLEAR     59  58  97 CALM      30.07S
$$

KYZ035>037-039>044-047>052-055>060-089>105-010900-
NORTHEAST KENTUCKY

CITY           SKY/WX    TMP DP  RH WIND       PRES   REMARKS
LEXINGTON      CLEAR     62  58  86 CALM      30.09F
COVINGTON      CLEAR     64  59  83 CALM      30.09S
FRANKFORT      CLEAR     60  58  92 CALM      30.08S
$$

KYZ054-064>069-076>088-106>120-010900-
SOUTHEAST KENTUCKY

CITY           SKY/WX    TMP DP  RH WIND       PRES   REMARKS
JACKSON        MOCLDY    66  59  78 CALM      30.10F
LONDON         PTCLDY    65  60  84 CALM      30.09F
SOMERSET       PTCLDY    61  61 100 CALM      30.09S
MIDDLESBORO    PTCLDY    61  61  99 CALM      30.11S
MONTICELLO     PTSUNNY   60  60 100 CALM      30.10S FOG
$$




USA.gov is the U.S. government's official web portal to all federal, state and local government web resources and services.